Location: Powder Track
(41.8531°N, 72.3584°W)
Time: 23:01:44
(UTC+00:00)

Vanguard 1 Rocket - Pass Details

Date: 07 August 2021
Orbit: 650 x 4226 km, 34.3° (Epoch: 19 September)

Event Time Altitude Azimuth Distance (km) Brightness Sun altitude
Rises 11:14:28 0° 214° (SSW) 8,255 11.9 14.3°
Reaches altitude 10° 11:20:43 10° 207° (SSW) 7,383 11.7 15.5°
Maximum altitude 11:43:18 40° 148° (SSE) 4,864 11.6 19.6°
Drops below altitude 10° 11:59:53 10° 87° (E) 5,593 13.6 22.7°
Sets 12:03:43 0° 81° (E) 6,186 13.1 23.4°
